World > North America > United States > Mississippi

Hourly Bellewood, MS Regional Weather

Feedback E-mail the Weather

Quick WX

Bellewood, MS Weather Maps

°F °C°F °C
Bellewood Weather Map
UTC Time: 7/4/2022, 06:25
Your Time:

Bellewood, MS Regional Weather

Expires:202207040700;;650114
ASUS44 KJAN 040610
RWRMS 

MISSISSIPPI HOURLY WEATHER ROUNDUP
NATIONAL WEATHER SERVICE JACKSON MS
100 AM CDT MON JUL 04 2022

NOTE: "FAIR: INDICATES FEW OR NO CLOUDS BELOW 12,000 FEET WITH NO
SIGNIFICANT WEATHER AND/OR OBSTRUCTIONS TO VISIBILITY.


MSZ001>002-007>008-010>013-018>021-025>028-034>036-040700-
NORTHWEST MISSISSIPPI
  
CITY           SKY/WX    TMP DP  RH WIND       PRES   REMARKS
BATESVILLE     FAIR      75  73  94 CALM      30.05F FOG              
CLARKSDALE     PTCLDY    75  75 100 CALM      30.06R                  
CLEVELAND      FAIR      74  74 100 CALM      30.05S                  
GREENWOOD      CLEAR     79  75  87 CALM      30.05S                  
6HR MIN TEMP:  79; 6HR MAX TEMP:  86;                                

GREENVILLE     NOT AVBL                                               
OLIVE BRANCH   PTCLDY    77  75  94 CALM      30.06S                  
OXFORD         CLEAR     75  75 100 CALM      30.08F                  
TUNICA         PTCLDY    76  75  97 S3        30.05F                  
WINONA         FAIR      75  75  99 CALM      30.07S                  
$$


SKY/WX - Weather  TMP - Temperature  DP - Dew Point  RH - Humidity
WIND - Wind Direction/Speed PRES - Barometric Pressure VSB - Visibility
WCI - Wind Chill Index E13G22 Wind - East Wind 13 mph/Gusts of 22 mph

Trending Headlines

Bellewood Radar Loop



Bellewood Quick Facts


National Two Day Weather Forecast


E-mail the Bellewood Weather Forecast

Voice your opinion or tell us about page issues...